Location: Glen Waverley
(37.8830°S, 145.1670°E)
Time: 12:35:04
(UTC+10:00)

ISS - Visible Passes

Search period start: 09 August 2022 00:00
Search period end: 19 August 2022 00:00
Orbit: 412 x 419 km, 51.6° (Epoch: 08 August)

Date Brightness Start Highest point End Pass type
(mag) Time Alt. Az. Time Alt. Az. Time Alt. Az.
09 Aug -1.1 04:50:28 21° ESE 04:50:28 21° ESE 04:51:59 10° E visible
09 Aug -2.7 06:23:22 15° WSW 06:25:40 30° NW 06:28:41 10° NNE visible
10 Aug -3.7 05:37:06 57° NW 05:37:08 57° NW 05:40:28 10° NE visible
11 Aug -1.1 04:50:56 18° NE 04:50:56 18° NE 04:51:55 10° NE visible
11 Aug -1.4 06:24:28 10° WNW 06:24:46 10° NW 06:25:04 10° NW visible
12 Aug -1.5 05:37:46 15° NNW 05:37:46 15° NNW 05:38:45 10° N visible
15 Aug -1.3 19:48:03 10° NW 19:49:02 18° NNW 19:49:02 18° NNW visible
16 Aug -2.9 18:59:45 10° NNW 19:02:47 31° NE 19:02:59 31° NE visible
17 Aug -1.9 18:11:54 10° N 18:14:13 17° NE 18:16:33 10° E visible
17 Aug -2.1 19:47:25 10° WNW 19:49:46 35° W 19:49:46 35° W visible
18 Aug -3.7 18:58:33 10° NW 19:01:56 81° SW 19:03:30 30° SE visible
